Regional Weather Roundup
Issued by NWS Charleston, SC

Current Version | Previous Version | Graphics & Text | Print | Product List | Glossary On
Versions: 1 2 3 4 5 6 7 8 9 10 11 12 13 14 15 16 17 18 19 20 21 22 23 24 25 26 27 28 29 30 31 32 33 34 35 36 37 38 39 40 41 42 43 44 45 46 47 48 49 50
000 ASUS42 KCHS 121226 RWRCHS REGIONAL WEATHER ROUNDUP NATIONAL WEATHER SERVICE CHARLESTON SC 700 AM EST TUE DEC 12 2017 NOTE: "FAIR" INDICATES FEW OR NO CLOUDS BELOW 12,000 FEET WITH NO SIGNIFICANT WEATHER AND/OR OBSTRUCTIONS TO VISIBILITY. NOT ALL STATIONS ARE QUALITY CONTROLLED. USE DATA WITH CAUTION... ESPECIALLY DEWPOINT OBSERVATIONS. SCZ027-030-031-034>040-042>050-121300- ...SOUTHEAST SOUTH CAROLINA... CITY SKY/WX TMP DP RH WIND PRES REMARKS N CHARLESTON CLEAR 44 38 79 SW10 29.88S 6HR MIN TEMP: 42; 6HR MAX TEMP: 46; WATERFRONT PRK N/A 48 41 76 SW6 29.74 JOHNS ISLAND FAIR 46 41 81 S7 29.88F PINOPOLIS N/A 46 39 76 SW14G21 29.78 MONCKS CORNER FAIR 45 36 70 SW8 29.85F SUMMERVILLE FAIR 39 36 87 SW3 29.87F BEAUFORT MCAS CLEAR 46 42 86 S6 29.89F 6HR MIN TEMP: 43; 6HR MAX TEMP: 47; BEAUFORT ARPT FAIR 45 41 87 SW5 29.89F FOG HILTON HEAD IS CLEAR 46 41 81 SW12 29.91 WALTERBORO SUNNY 39 36 87 S6 29.87F WCI 35 ALLENDALE FAIR 39 37 93 CALM 29.85S ...SOUTHERN MIDLANDS AND PEE DEE... CITY SKY/WX TMP DP RH WIND PRES REMARKS GEORGETOWN FAIR 43 37 81 SW7 29.86F KINGSTREE FAIR 41 36 81 CALM 29.83F ORANGEBURG CLEAR 40 35 83 SW7 29.84F WCI 35 6HR MIN TEMP: 38; 6HR MAX TEMP: 41; BARNWELL N/A 41 37 87 CALM 29.85S AIKEN FAIR 41 36 81 SW6 29.84F MANNING FAIR 43 30 61 MISG 29.83F COLUMBIA MOCLDY 42 37 82 SW5 29.80F 6HR MIN TEMP: 42; 6HR MAX TEMP: 46; SUMTER PTCLDY 45 35 69 SW12 29.78F 6HR MIN TEMP: 44; 6HR MAX TEMP: 47; FLORENCE CLOUDY 42 36 79 SW8 29.80F 6HR MIN TEMP: 40; 6HR MAX TEMP: 44; MYRTLE BEACH CLEAR 48 37 65 SW8 29.85F N MYRTLE BEACH CLEAR 48 37 65 SW10 29.83F 6HR MIN TEMP: 46; 6HR MAX TEMP: 51; $$ GAZ063-065-086>088-099>101-113>116-118-119-134>141-150-121300- ...SOUTHEAST GEORGIA... CITY SKY/WX TMP DP RH WIND PRES REMARKS SAVANNAH ARPT CLEAR 43 40 89 SW7 29.91F 6HR MIN TEMP: 42; 6HR MAX TEMP: 47; HUNTER AAF CLEAR 44 40 85 SW8 29.88F 6HR MIN TEMP: 44; 6HR MAX TEMP: 46; FORT STEWART CLEAR 41 39 90 S6 29.89F 6HR MIN TEMP: 41; 6HR MAX TEMP: 45; STATESBORO CLEAR 44 38 78 SW6 29.88S SYLVANIA SUNNY 42 40 91 CALM 29.88S CLAXTON FAIR 44 41 90 S3 29.89F ...CSRA...CENTRAL AND FAR SOUTHEAST GEORGIA... CITY SKY/WX TMP DP RH WIND PRES REMARKS THOMSON PTCLDY 42 37 80 W6 29.88S AUGUSTA-BUSH PTCLDY 45 37 73 SW10 29.83F 6HR MIN TEMP: 42; 6HR MAX TEMP: 47; AUGUSTA-DANIEL PTCLDY 46 36 68 SW8 29.83F SWAINSBORO FAIR 37 37 100 CALM 29.89S VIDALIA CLEAR 43 41 93 SW6 29.89S EASTMAN FAIR 42 34 74 CALM 29.92S HAZLEHURST FAIR 46 38 76 SW7 29.89F ALMA CLEAR 41 39 93 SW3 29.92F 6HR MIN TEMP: 38; 6HR MAX TEMP: 42; WAYCROSS CLEAR 46 43 90 SW7 29.94S JESUP NOT AVBL BAXLEY FAIR 37 37 100 S6 29.90F WCI 33 BRUNSWICK CLEAR 46 43 87 SW8 29.95F SAINT SIMONS CLEAR 47 45 93 SW9 29.95F 6HR MIN TEMP: 46; 6HR MAX TEMP: 48; $$ SCZ027-028-034-036>038-045-046-048>050-GAZ119-141-121300- ...LAKE AND SUPPLEMENTAL COASTAL OBSERVATIONS... STATION/POSITION TIME TEMP WIND PRES WAVE SWELL AIR SEA DIR/SP/G HT/PER HT/PER/DIR (UTC) (F) (DEG/KT/KT) (MB) (FT/S) (FT/S/D) WINYAH BAY 1145 47 240/ 7 1011.0F LAKE MURRAY 1150 48 240/ 10/ 16 1008.1F ACE BASIN NERRS 1145 44 CALM 1012.0F FORT PULASKI 1200 48 55 250/ 6/ 12 1013.1 SAPELO ISLAND NOT AVBL $$ ANZ835-935-AMZ111-154-330-350-352-354-370-450-454-472-121300- ...C-MAN AND BUOY OBSERVATIONS... STATION/POSITION TIME TEMP WIND PRES WAVE SWELL AIR SEA DIR/SP/G HT/PER HT/PER/DIR (UTC) (F) (DEG/KT/KT) (MB) (FT/S) (FT/S/D) BUOY 41004 1210 74 250/ 19/ 25 1011.9 BUOY 41008 1150 57 61 230/ 19/ 23 1013.4F 3/ 5 FOLLY BEACH CMAN 1200 49 230/ 8/ 10 1012.5F CAPERS NEARSHORE 1108 51 57 260/ 16/ 23 1011.6F FRIPP NEARSHORE 1208 50 56 230/ 19/ 27 1011.5F STATION/POSITION TIME TEMP WIND PRES WAVE SWELL AIR SEA DIR/SP/G HT/PER HT/PER/DIR (UTC) (F) (DEG/KT/KT) (MB) (FT/S) (FT/S/D) 5E ST. MARYS GA 1200 60 N/A 2/10 FRYING PAN BUOY 1210 62 67 240/ 21/ 27 1010.6 BUOY 41025 1210 62 74 230/ 23/ 29 1009.4 CAPE LOOKOUT NC 1200 230/ 12/ 16 1009.8F BUOY 41002 1150 69 75 230/ 19/ 23 1013.6F 5/ 5 2/ 40/10 BUOY 41010 NOT AVBL ST AUGUSTINE FL 1200 46 61 220/ 7/ 9 1016.5F $$

USA.gov is the U.S. government's official web portal to all federal, state and local government web resources and services.